Lake Houston Weather Center

Moon Phase Calendar



Lake Houston Water Level
Online Cameras

 


      

Current Conditions in Atascocita
2/21/2024 6:33:30 AM

56°F
Feels Like 55
Clouds
Humidity
76%
Pressure
30.15"
Wind
6.2 mph (S)
Dew Point
49°F
UV Index
0/10 (Low)
Visibility
6 mi

Hourly Forecast

Date & Time Wed, Feb 21
6:00 AM
Wed, Feb 21
7:00 AM
Wed, Feb 21
8:00 AM
Wed, Feb 21
9:00 AM
Wed, Feb 21
10:00 AM
Wed, Feb 21
11:00 AM
Wed, Feb 21
12:00 PM
Wed, Feb 21
1:00 PM
Wed, Feb 21
2:00 PM
Wed, Feb 21
3:00 PM
Wed, Feb 21
4:00 PM
Wed, Feb 21
5:00 PM
Wed, Feb 21
6:00 PM
Wed, Feb 21
7:00 PM
Wed, Feb 21
8:00 PM
Wed, Feb 21
9:00 PM
Wed, Feb 21
10:00 PM
Wed, Feb 21
11:00 PM
Thu, Feb 22
12:00 AM
Thu, Feb 22
1:00 AM
Thu, Feb 22
2:00 AM
Thu, Feb 22
3:00 AM
Thu, Feb 22
4:00 AM
Thu, Feb 22
5:00 AM
Thu, Feb 22
6:00 AM
Thu, Feb 22
7:00 AM
Thu, Feb 22
8:00 AM
Thu, Feb 22
9:00 AM
Thu, Feb 22
10:00 AM
Thu, Feb 22
11:00 AM
Thu, Feb 22
12:00 PM
Thu, Feb 22
1:00 PM
Thu, Feb 22
2:00 PM
Thu, Feb 22
3:00 PM
Thu, Feb 22
4:00 PM
Thu, Feb 22
5:00 PM
Thu, Feb 22
6:00 PM
Thu, Feb 22
7:00 PM
Thu, Feb 22
8:00 PM
Thu, Feb 22
9:00 PM
Thu, Feb 22
10:00 PM
Thu, Feb 22
11:00 PM
Fri, Feb 23
12:00 AM
Fri, Feb 23
1:00 AM
Fri, Feb 23
2:00 AM
Fri, Feb 23
3:00 AM
Fri, Feb 23
4:00 AM
Fri, Feb 23
5:00 AM
Condition
Clouds

Clouds

Clouds

Clouds

Clouds

Clouds

Clear

Clear

Clear

Clear

Clear

Clear

Clear

Clear

Clear

Clear

Clear

Clouds

Clouds

Clouds

Clouds

Clouds

Clouds

Clouds

Clouds

Clouds

Clouds

Clouds

Clouds

Clouds

Clouds

Clouds

Clouds

Clouds

Clouds

Clouds

Clouds

Clear

Clear

Clear

Clouds

Clouds

Clouds

Clouds

Clouds

Clouds

Clouds

Clouds
Temperature 56°F56°F57°F59°F63°F69°F75°F76°F77°F76°F75°F72°F69°F66°F65°F65°F64°F64°F64°F64°F64°F65°F65°F65°F65°F65°F65°F68°F71°F73°F74°F73°F73°F74°F76°F76°F73°F70°F69°F67°F67°F66°F65°F63°F62°F61°F60°F60°F
Feels Like 56°F55°F56°F59°F63°F68°F74°F76°F76°F76°F75°F72°F69°F66°F65°F65°F65°F64°F64°F64°F64°F65°F65°F65°F65°F65°F66°F68°F71°F73°F74°F73°F73°F74°F76°F76°F73°F70°F69°F68°F67°F66°F63°F61°F60°F59°F59°F58°F
Cloudiness 12%14%14%14%14%12%10%0%0%0%0%0%0%0%1%6%7%12%18%67%82%88%91%93%94%100%100%100%93%87%87%100%100%100%82%71%60%0%0%2%26%41%51%59%79%74%61%54%
Visibility 6 mi6 mi6 mi6 mi6 mi6 mi6 mi6 mi6 mi6 mi6 mi6 mi6 mi6 mi6 mi6 mi6 mi6 mi6 mi6 mi6 mi6 mi6 mi6 mi6 mi6 mi6 mi6 mi6 mi6 mi6 mi6 mi6 mi6 mi6 mi6 mi6 mi6 mi6 mi6 mi6 mi6 mi6 mi6 mi6 mi6 mi6 mi6 mi
Precipitation 0%0%0%0%0%0%0%0%0%0%0%0%0%0%0%0%0%0%0%0%0%0%0%0%0%6%6%4%0%0%0%0%0%0%0%0%0%0%0%0%0%0%0%0%0%0%0%0%
Humidity 81%76%80%80%74%65%55%51%49%50%54%61%72%79%82%84%85%86%88%87%84%81%79%79%80%84%84%79%69%64%62%67%66%66%59%59%65%71%76%81%80%67%52%51%56%61%65%66%
Dew Point 51°F49°F51°F53°F55°F56°F57°F56°F56°F56°F57°F58°F59°F59°F60°F60°F60°F60°F60°F60°F59°F59°F58°F59°F59°F60°F60°F61°F60°F61°F60°F61°F61°F62°F61°F61°F60°F60°F61°F61°F60°F54°F46°F44°F46°F47°F48°F48°F
Pressure 30.15"30.15"30.15"30.18"30.18"30.18"30.15"30.12"30.06"30.03"30.03"30.03"30.03"30.03"30"30"30"30"30"29.97"29.94"29.91"29.91"29.94"29.94"29.94"29.94"29.91"29.91"29.88"29.88"29.85"29.83"29.8"29.8"29.77"29.77"29.8"29.83"29.83"29.85"29.85"29.85"29.85"29.88"29.88"29.88"29.91"
Wind Speed 5.8 mph6.2 mph6.8 mph10 mph11.5 mph11.9 mph12.2 mph13.4 mph14.1 mph14.7 mph15.2 mph14.6 mph13.6 mph13.2 mph12.7 mph14.8 mph13.8 mph12.8 mph11.4 mph12.2 mph13.6 mph13.8 mph11.6 mph9.5 mph8 mph9.3 mph10.4 mph12.4 mph16.7 mph16.8 mph15.1 mph13.2 mph12.7 mph12.1 mph12 mph10.1 mph7.6 mph6.7 mph7 mph6.7 mph6.1 mph6 mph7.5 mph8.2 mph8.8 mph8.6 mph8.8 mph9.2 mph
Wind
Direction
179°
S
178°
S
184°
S
191°
S
192°
SSW
190°
S
186°
S
183°
S
180°
S
178°
S
177°
S
176°
S
176°
S
176°
S
174°
S
176°
S
183°
S
185°
S
193°
SSW
190°
S
193°
SSW
197°
SSW
209°
SSW
218°
SW
214°
SW
192°
SSW
193°
SSW
203°
SSW
209°
SSW
221°
SW
229°
SW
225°
SW
232°
SW
226°
SW
232°
SW
226°
SW
220°
SW
218°
SW
218°
SW
229°
SW
254°
WSW
302°
WNW
331°
NNW
341°
NNW
342°
NNW
344°
NNW
345°
NNW
346°
NNW

Daily Forecast

Date High Low Precip. Humidity
Today
Feb 21

Clear
77 °F
56 °F
0%
55%
Thursday
Feb 22

Clouds
76 °F
64 °F
6%
62%
Friday
Feb 23

Clouds
74 °F
57 °F
0%
41%
Saturday
Feb 24

Clouds
76 °F
56 °F
0%
25%
Sunday
Feb 25

Clouds
76 °F
58 °F
0%
47%
Monday
Feb 26

Clouds
82 °F
64 °F
0%
63%
Tuesday
Feb 27

Clouds
81 °F
67 °F
0%
58%
Wednesday
Feb 28

Rain
82 °F
60 °F
98%
56%
Thursday
Feb 29

Rain
60 °F
49 °F
44%
37%
Friday
Mar 1

Clouds
63 °F
43 °F
0%
49%
Saturday
Mar 2

Clouds
70 °F
51 °F
0%
51%
Sunday
Mar 3

Clear
71 °F
54 °F
0%
51%
Monday
Mar 4

Clouds
70 °F
58 °F
0%
62%
Tuesday
Mar 5

Rain
81 °F
61 °F
42%
56%
Wednesday
Mar 6

Rain
80 °F
67 °F
94%
63%
Thursday
Mar 7

Clear
79 °F
58 °F
0%
30%

Temperature 8-14 Day Outlook



Precipitation 8-14 Day Outlook




Quick Links
Lake Houston News
Lake Houston Photos
Lake Houston Videos




About Us
Contact Us
Site Map
Search Site
Advertise With Us
   
Houston.USLakes.info
THE LAKE HOUSTON WEBSITE

Copyright 2024, Lakes Online
Privacy    |    Legal